Location: Breckenridge
(39.4820°N, 106.0380°W)
Time: 14:04:22
(UTC-06:00)

ISS - Pass Details

Date: 26 March 2019
Orbit: 408 x 410 km, 51.6° (Epoch: 23 April)

Event Time Altitude Azimuth Distance (km) Brightness Sun altitude
Rises 20:04:52 0° 268° (W) 2,322 1.9 -9.0°
Reaches altitude 10° 20:07:19 10° 286° (WNW) 1,463 0.7 -9.5°
Maximum altitude 20:09:51 20° 337° (NNW) 1,001 -1.4 -10.0°
Drops below altitude 10° 20:12:23 10° 27° (NNE) 1,466 -1.2 -10.4°
Enters shadow 20:14:25 - 43° (NE) 2,175 -0.4 -10.8°
